Idabel, OK

12:38 PM CDT on October 21, 2017 (GMT -0500)
Idabel

Weather History for K4O4 - September, 2012

Change the Weather History Date:

Thursday, September 6, 2012

  Actual Average (KPRX) Record (KPRX)
Temperature  
Mean Temperature 87 °F -  
Max Temperature 105 °F 86 °F 104 °F (2012)
Min Temperature 69 °F 66 °F 55 °F (1997)
Cooling Degree Days 22    
Growing Degree Days 37 (Base 50)    
Moisture  
Dew Point 61 °F    
Average Humidity 47    
Maximum Humidity 83    
Minimum Humidity 18    
Precipitation  
Precipitation 0.00 in - - ()
Sea Level Pressure  
Sea Level Pressure 29.87 in    
Wind  
Wind Speed 2 mph (SSW)    
Max Wind Speed 17 mph    
Max Gust Speed 24 mph    
Visibility 10 miles    
Events      
Averages and records for this station are not official NWS values.
T = Trace of Precipitation, MM = Missing Value Source: NWS Daily Summary

Daily Weather History Graph

Daily Weather History Graph

Search for Another Location

Airport or City:

Trip Planner

Search our weather history database for the weather conditions in past years. The results will help you decide how hot, cold, wet, or windy it might be!

Date:

Astronomy

Sep. 06, 2012 Rise Set
Actual Time 6:56 AM CDT 7:37 PM CDT
Civil Twilight 6:31 AM CDT 8:02 PM CDT
Nautical Twilight 6:01 AM CDT 8:32 PM CDT
Astronomical Twilight 5:31 AM CDT 9:03 PM CDT
Moon 11:08 PM CDT (9/6) 12:38 PM CDT (9/6)
Length of Visible Light 13h 31m
Length of Day
12h 40m
Waning Gibbous, 67% of the Moon is Illuminated
Sep 6
Waning Gibbous
Sep 8
Last Quarter
Sep 15
New
Sep 22
First Quarter
Sep 29
Full

Hourly Weather History & Observations

Time (CDT) Temp. Heat Index Dew Point Humidity Pressure Visibility Wind Dir Wind Speed Gust Speed Precip Events Conditions
12:15 AM 80.6 °F 82.3 °F 64.4 °F 58% 29.86 in 10.0 mi Calm Calm - N/A   Clear
12:35 AM 78.8 °F - 64.4 °F 61% 29.86 in 10.0 mi Calm Calm - N/A   Clear
12:55 AM 78.8 °F - 64.4 °F 61% 29.86 in 10.0 mi Calm Calm - N/A   Clear
1:15 AM 78.8 °F - 64.4 °F 61% 29.86 in 10.0 mi NW 3.5 mph - N/A   Clear
1:55 AM 78.8 °F - 62.6 °F 57% 29.86 in 10.0 mi West 3.5 mph - N/A   Clear
2:15 AM 78.8 °F - 62.6 °F 57% 29.86 in 10.0 mi NW 4.6 mph - N/A   Clear
2:35 AM 78.8 °F - 64.4 °F 61% 29.86 in 10.0 mi Calm Calm - N/A   Clear
2:55 AM 77.0 °F - 66.2 °F 69% 29.87 in 10.0 mi Calm Calm - N/A   Clear
3:15 AM 75.2 °F - 66.2 °F 73% 29.87 in 10.0 mi Calm Calm - N/A   Clear
3:35 AM 75.2 °F - 66.2 °F 73% 29.88 in 10.0 mi Calm Calm - N/A   Clear
3:55 AM 75.2 °F - 66.2 °F 73% 29.88 in 10.0 mi Calm Calm - N/A   Clear
4:15 AM 73.4 °F - 68.0 °F 83% 29.88 in 10.0 mi Calm Calm - N/A   Clear
4:35 AM 73.4 °F - 68.0 °F 83% 29.88 in 10.0 mi Calm Calm - N/A   Clear
4:55 AM 73.4 °F - 68.0 °F 83% 29.88 in 10.0 mi Calm Calm - N/A   Clear
5:15 AM 71.6 °F - 66.2 °F 83% 29.88 in 10.0 mi Calm Calm - N/A   Clear
5:35 AM 71.6 °F - 66.2 °F 83% 29.88 in 10.0 mi Calm Calm - N/A   Clear
5:55 AM 71.6 °F - 66.2 °F 83% 29.88 in 10.0 mi Calm Calm - N/A   Clear
6:15 AM 71.6 °F - 64.4 °F 78% 29.88 in 10.0 mi Calm Calm - N/A   Clear
6:35 AM 69.8 °F - 64.4 °F 83% 29.89 in 10.0 mi Calm Calm - N/A   Clear
6:55 AM 69.8 °F - 64.4 °F 83% 29.89 in 10.0 mi Calm Calm - N/A   Clear
7:15 AM 69.8 °F - 64.4 °F 83% 29.90 in 10.0 mi Calm Calm - N/A   Clear
7:35 AM 69.8 °F - 64.4 °F 83% 29.91 in 10.0 mi South 3.5 mph - N/A   Clear
7:55 AM 71.6 °F - 66.2 °F 83% 29.90 in 10.0 mi SSW 3.5 mph - N/A   Clear
8:15 AM 75.2 °F - 64.4 °F 69% 29.90 in 10.0 mi SSW 3.5 mph - N/A   Clear
8:35 AM 78.8 °F - 64.4 °F 61% 29.90 in 10.0 mi West 4.6 mph - N/A   Clear
8:55 AM 82.4 °F 83.4 °F 62.6 °F 51% 29.90 in 10.0 mi Calm Calm - N/A   Clear
9:15 AM 86.0 °F 86.6 °F 62.6 °F 45% 29.91 in 10.0 mi Calm Calm - N/A   Clear
9:55 AM 91.4 °F 91.4 °F 60.8 °F 36% 29.92 in 10.0 mi Calm Calm - N/A   Clear
10:15 AM 93.2 °F 93.3 °F 60.8 °F 34% 29.92 in 10.0 mi Calm Calm - N/A   Clear
10:35 AM 95.0 °F 95.2 °F 60.8 °F 32% 29.92 in 10.0 mi NE 3.5 mph - N/A   Clear
10:55 AM 96.8 °F 97.1 °F 60.8 °F 30% 29.92 in 10.0 mi NNE 3.5 mph - N/A   Clear
11:15 AM 98.6 °F 98.5 °F 59.0 °F 27% 29.92 in 10.0 mi Calm Calm - N/A   Clear
11:35 AM 98.6 °F 98.5 °F 59.0 °F 27% 29.92 in 10.0 mi Calm Calm - N/A   Clear
11:55 AM 100.4 °F 98.8 °F 55.4 °F 22% 29.91 in 10.0 mi Calm Calm - N/A   Clear
12:15 PM 102.2 °F 100.4 °F 53.6 °F 20% 29.90 in 10.0 mi WSW 4.6 mph - N/A   Clear
12:35 PM 102.2 °F 100.9 °F 55.4 °F 21% 29.90 in 10.0 mi NW 4.6 mph - N/A   Clear
12:55 PM 104.0 °F 102.9 °F 55.4 °F 20% 29.90 in 10.0 mi WSW 5.8 mph - N/A   Clear
1:15 PM 104.0 °F 103.4 °F 57.2 °F 21% 29.89 in 10.0 mi SSW 6.9 mph - N/A   Clear
1:35 PM 104.0 °F 102.9 °F 55.4 °F 20% 29.88 in 10.0 mi SSW 10.4 mph - N/A   Clear
1:55 PM 104.0 °F 102.3 °F 53.6 °F 19% 29.88 in 10.0 mi SSW 5.8 mph - N/A   Clear
2:15 PM 104.0 °F 102.3 °F 53.6 °F 19% 29.88 in 10.0 mi South 9.2 mph - N/A   Clear
2:35 PM 105.8 °F 104.3 °F 53.6 °F 18% 29.87 in 10.0 mi SSE 5.8 mph - N/A   Clear
2:55 PM 105.8 °F 104.3 °F 53.6 °F 18% 29.86 in 10.0 mi South 9.2 mph - N/A   Clear
3:15 PM 105.8 °F 104.3 °F 53.6 °F 18% 29.85 in 10.0 mi Calm Calm - N/A   Clear
3:55 PM 105.8 °F 104.9 °F 55.4 °F 19% 29.83 in 10.0 mi SSW 6.9 mph - N/A   Clear
4:15 PM 104.0 °F 102.9 °F 55.4 °F 20% 29.83 in 10.0 mi SSW 4.6 mph - N/A   Clear
4:35 PM 100.4 °F 98.8 °F 55.4 °F 22% 29.83 in 10.0 mi SSW 6.9 mph - N/A   Clear
4:55 PM 100.4 °F 98.8 °F 55.4 °F 22% 29.82 in 10.0 mi WSW 4.6 mph - N/A   Clear
5:15 PM 100.4 °F 98.8 °F 55.4 °F 22% 29.82 in 10.0 mi South 4.6 mph - N/A   Clear
5:35 PM 98.6 °F 97.2 °F 55.4 °F 24% 29.82 in 10.0 mi West 10.4 mph 23.0 mph N/A   Clear
5:55 PM 95.0 °F 93.7 °F 57.2 °F 28% 29.82 in 10.0 mi West 16.1 mph 20.7 mph N/A   Clear
6:15 PM 95.0 °F 93.0 °F 55.4 °F 26% 29.82 in 10.0 mi Calm Calm - N/A   Scattered Clouds
6:35 PM 98.6 °F 98.5 °F 59.0 °F 27% 29.83 in 10.0 mi SSE 17.3 mph 24.2 mph N/A   Clear
6:55 PM 93.2 °F 92.6 °F 59.0 °F 32% 29.83 in 10.0 mi South 10.4 mph - N/A   Clear
7:15 PM 91.4 °F 91.4 °F 60.8 °F 36% 29.83 in 10.0 mi SSE 6.9 mph - N/A   Clear
7:35 PM 89.6 °F 88.9 °F 59.0 °F 36% 29.82 in 10.0 mi South 3.5 mph - N/A   Clear
8:15 PM 86.0 °F 86.1 °F 60.8 °F 43% 29.82 in 10.0 mi Calm Calm - N/A   Clear
8:35 PM 84.2 °F 84.4 °F 60.8 °F 45% 29.83 in 10.0 mi Calm Calm - N/A   Clear
10:35 PM 80.6 °F 81.5 °F 60.8 °F 51% 29.86 in 10.0 mi SE 3.5 mph - N/A   Clear
10:55 PM 80.6 °F 81.1 °F 59.0 °F 48% 29.87 in 10.0 mi ESE 4.6 mph - N/A   Clear
11:15 PM 82.4 °F 82.5 °F 59.0 °F 45% 29.87 in 10.0 mi ESE 5.8 mph - N/A   Clear
11:55 PM 80.6 °F 81.1 °F 59.0 °F 48% 29.88 in 10.0 mi East 3.5 mph - N/A   Clear